Change the Weather History Date:

Thursday, April 11, 2013

  Actual Average Record
Temperature  
Mean Temperature 68 °F -  
Max Temperature 78 °F 67 °F 87 °F (2001)
Min Temperature 57 °F 44 °F 32 °F (1998)
Cooling Degree Days 2    
Growing Degree Days 18 (Base 50)    
Moisture  
Dew Point 53 °F    
Average Humidity 62    
Maximum Humidity 94    
Minimum Humidity 36    
Precipitation  
Precipitation 0.73 in - - ()
Sea Level Pressure  
Sea Level Pressure 29.77 in    
Wind  
Wind Speed 6 mph (South)    
Max Wind Speed 17 mph    
Max Gust Speed 32 mph    
Visibility 9 miles    
Events Rain , Thunderstorm    
Averages and records for this station are not official NWS values.
T = Trace of Precipitation, MM = Missing Value Source: NWS Daily Summary

Daily Weather History Graph

Daily Weather History Graph

Search for Another Location

Airport or City:

Trip Planner

Search our weather history database for the weather conditions in past years. The results will help you decide how hot, cold, wet, or windy it might be!

Date:

Astronomy

Apr. 11, 2013 Rise Set
Actual Time 7:09 AM EDT 8:10 PM EDT
Civil Twilight 6:42 AM EDT 8:36 PM EDT
Nautical Twilight 6:11 AM EDT 9:08 PM EDT
Astronomical Twilight 5:38 AM EDT 9:41 PM EDT
Moon 7:42 AM EDT (4/11) 9:40 PM EDT (4/11)
Length of Visible Light 13h 53m
Length of Day
13h 00m
New Moon, 2% of the Moon is Illuminated
Apr 11
New Moon
Apr 18
First Quarter
Apr 25
Full
May 2
Last Quarter
May 9
New

Hourly Weather History & Observations

Time (EDT) Temp. Dew Point Humidity Pressure Visibility Wind Dir Wind Speed Gust Speed Precip Events Conditions
12:15 AM 71.6 °F 51.8 °F 50% 29.88 in 10.0 mi South 3.5 mph - N/A   Clear
12:35 AM 71.6 °F 51.8 °F 50% 29.88 in 10.0 mi South 4.6 mph - N/A   Clear
12:55 AM 71.6 °F 51.8 °F 50% 29.88 in 10.0 mi South 3.5 mph - N/A   Clear
1:15 AM 71.6 °F 51.8 °F 50% 29.88 in 10.0 mi Calm Calm - N/A   Clear
1:35 AM 69.8 °F 51.8 °F 53% 29.88 in 10.0 mi SSW 3.5 mph - N/A   Clear
1:55 AM 69.8 °F 51.8 °F 53% 29.88 in 10.0 mi South 3.5 mph - N/A   Scattered Clouds
2:15 AM 69.8 °F 51.8 °F 53% 29.87 in 10.0 mi South 3.5 mph - N/A   Mostly Cloudy
2:35 AM 68.0 °F 51.8 °F 56% 29.87 in 10.0 mi South 4.6 mph - N/A   Scattered Clouds
2:55 AM 69.8 °F 51.8 °F 53% 29.85 in 10.0 mi South 4.6 mph - N/A   Mostly Cloudy
3:15 AM 69.8 °F 51.8 °F 53% 29.85 in 10.0 mi South 4.6 mph - N/A   Scattered Clouds
3:35 AM 68.0 °F 51.8 °F 56% 29.85 in 10.0 mi South 4.6 mph - N/A   Clear
3:55 AM 68.0 °F 51.8 °F 56% 29.84 in 10.0 mi South 5.8 mph - N/A   Clear
4:15 AM 68.0 °F 51.8 °F 56% 29.85 in 10.0 mi South 4.6 mph - N/A   Clear
4:35 AM 68.0 °F 51.8 °F 56% 29.84 in 10.0 mi South 4.6 mph - N/A   Clear
4:55 AM 68.0 °F 51.8 °F 56% 29.84 in 10.0 mi SSE 4.6 mph - N/A   Clear
5:15 AM 68.0 °F 51.8 °F 56% 29.84 in 10.0 mi South 6.9 mph - N/A   Clear
5:35 AM 68.0 °F 51.8 °F 56% 29.84 in 10.0 mi SSW 5.8 mph - N/A   Clear
5:55 AM 68.0 °F 53.6 °F 60% 29.84 in 10.0 mi SSW 4.6 mph - N/A   Clear
6:15 AM 68.0 °F 53.6 °F 60% 29.84 in 10.0 mi SSW 3.5 mph - N/A   Clear
6:35 AM 68.0 °F 53.6 °F 60% 29.85 in 10.0 mi South 4.6 mph - N/A   Clear
6:55 AM 68.0 °F 53.6 °F 60% 29.85 in 10.0 mi South 5.8 mph - N/A   Clear
7:15 AM 68.0 °F 53.6 °F 60% 29.85 in 10.0 mi South 5.8 mph - N/A   Clear
7:35 AM 68.0 °F 53.6 °F 60% 29.85 in 10.0 mi South 5.8 mph - N/A   Clear
7:55 AM 68.0 °F 53.6 °F 60% 29.86 in 10.0 mi South 4.6 mph - N/A   Clear
8:15 AM 68.0 °F 53.6 °F 60% 29.85 in 10.0 mi South 9.2 mph - N/A   Clear
8:35 AM 68.0 °F 53.6 °F 60% 29.86 in 10.0 mi South 5.8 mph - N/A   Clear
8:55 AM 69.8 °F 55.4 °F 60% 29.85 in 10.0 mi South 6.9 mph - N/A   Mostly Cloudy
9:15 AM 69.8 °F 53.6 °F 56% 29.85 in 10.0 mi South 6.9 mph - N/A   Overcast
9:35 AM 69.8 °F 55.4 °F 60% 29.85 in 10.0 mi South 6.9 mph - N/A   Scattered Clouds
9:55 AM 69.8 °F 53.6 °F 56% 29.85 in 10.0 mi SW 8.1 mph 16.1 mph N/A   Scattered Clouds
10:15 AM 71.6 °F 53.6 °F 53% 29.85 in 10.0 mi SW 5.8 mph - N/A   Overcast
10:35 AM 71.6 °F 53.6 °F 53% 29.84 in 10.0 mi SSW 4.6 mph - N/A   Mostly Cloudy
10:55 AM 71.6 °F 53.6 °F 53% 29.84 in 10.0 mi SW 5.8 mph - N/A   Mostly Cloudy
11:15 AM 71.6 °F 53.6 °F 53% 29.84 in 10.0 mi SSW 5.8 mph - N/A   Overcast
11:35 AM 73.4 °F 53.6 °F 50% 29.84 in 10.0 mi SW 8.1 mph - N/A   Overcast
11:55 AM 73.4 °F 53.6 °F 50% 29.83 in 10.0 mi SSW 9.2 mph - N/A   Mostly Cloudy
12:15 PM 73.4 °F 51.8 °F 47% 29.82 in 10.0 mi WSW 10.4 mph - N/A   Mostly Cloudy
12:35 PM 75.2 °F 51.8 °F 44% 29.80 in 10.0 mi SW 5.8 mph - N/A   Mostly Cloudy
1:15 PM 73.4 °F 53.6 °F 50% 29.78 in 10.0 mi Calm Calm - N/A   Overcast
1:35 PM 75.2 °F 51.8 °F 44% 29.76 in 10.0 mi South 6.9 mph - N/A   Overcast
1:55 PM 77.0 °F 51.8 °F 41% 29.74 in 10.0 mi South 9.2 mph - N/A   Overcast
2:15 PM 75.2 °F 51.8 °F 44% 29.73 in 10.0 mi South 9.2 mph - N/A   Overcast
2:35 PM 73.4 °F 51.8 °F 47% 29.72 in 10.0 mi South 6.9 mph - N/A Rain Light Rain
2:55 PM 73.4 °F 53.6 °F 50% 29.71 in 10.0 mi SSE 9.2 mph - N/A   Overcast
3:15 PM 75.2 °F 53.6 °F 47% 29.69 in 10.0 mi South 6.9 mph - N/A   Overcast
3:35 PM 78.8 °F 53.6 °F 42% 29.68 in 10.0 mi South 9.2 mph - N/A   Mostly Cloudy
3:55 PM 78.8 °F 51.8 °F 39% 29.66 in 10.0 mi South 13.8 mph 18.4 mph N/A   Mostly Cloudy
4:15 PM 78.8 °F 50.0 °F 36% 29.65 in 10.0 mi South 15.0 mph 24.2 mph N/A   Mostly Cloudy
4:35 PM 78.8 °F 51.8 °F 39% 29.64 in 10.0 mi South 11.5 mph 23.0 mph N/A   Overcast
4:55 PM 77.0 °F 50.0 °F 39% 29.62 in 10.0 mi South 16.1 mph 23.0 mph N/A   Overcast
5:15 PM 77.0 °F 51.8 °F 41% 29.61 in 10.0 mi South 17.3 mph 25.3 mph N/A   Overcast
5:35 PM 77.0 °F 51.8 °F 41% 29.60 in 10.0 mi South 11.5 mph 23.0 mph N/A   Overcast
5:55 PM 77.0 °F 51.8 °F 41% 29.62 in 10.0 mi SW 10.4 mph 25.3 mph N/A   Overcast
6:15 PM 60.8 °F 55.4 °F 82% 29.69 in 4.0 mi WNW 15.0 mph 32.2 mph 0.07 in Rain , Thunderstorm Heavy Thunderstorms and Rain
6:35 PM 59.0 °F 55.4 °F 88% 29.71 in 3.0 mi NW 12.7 mph 28.8 mph 0.20 in Rain , Thunderstorm Heavy Thunderstorms and Rain
6:55 PM 59.0 °F 55.4 °F 88% 29.71 in 10.0 mi NNW 9.2 mph - 0.24 in Rain , Thunderstorm Thunderstorms and Rain
7:15 PM 59.0 °F 55.4 °F 88% 29.72 in 7.0 mi North 4.6 mph - 0.05 in Rain Light Rain
7:35 PM 59.0 °F 55.4 °F 88% 29.72 in 5.0 mi NNW 3.5 mph - 0.08 in Rain Rain
7:55 PM 59.0 °F 55.4 °F 88% 29.72 in 5.0 mi Calm Calm - 0.13 in Rain Heavy Rain
8:15 PM 59.0 °F 55.4 °F 88% 29.72 in 5.0 mi Calm Calm - 0.07 in Rain Rain
8:35 PM 57.2 °F 55.4 °F 94% 29.72 in 3.0 mi Calm Calm - 0.17 in Rain Heavy Rain
8:55 PM 57.2 °F 55.4 °F 94% 29.70 in 7.0 mi SE 5.8 mph - 0.24 in Rain Rain
9:15 PM 57.2 °F 55.4 °F 94% 29.69 in 10.0 mi ESE 8.1 mph - 0.03 in Rain Rain
9:35 PM 57.2 °F 55.4 °F 94% 29.67 in 10.0 mi ESE 13.8 mph 21.9 mph 0.06 in Rain Rain
9:55 PM 57.2 °F 55.4 °F 94% 29.64 in 7.0 mi SE 13.8 mph 18.4 mph 0.10 in Rain Rain
10:15 PM 57.2 °F 55.4 °F 94% 29.60 in 10.0 mi SE 13.8 mph 25.3 mph 0.02 in Rain Light Rain
10:35 PM 57.2 °F 55.4 °F 94% 29.63 in 10.0 mi South 3.5 mph - 0.02 in   Mostly Cloudy
10:55 PM 57.2 °F 55.4 °F 94% 29.65 in 10.0 mi South 9.2 mph - 0.02 in   Mostly Cloudy
11:15 PM 57.2 °F 55.4 °F 94% 29.64 in 10.0 mi SSE 5.8 mph - N/A Rain Light Rain
11:35 PM 57.2 °F 55.4 °F 94% 29.61 in 10.0 mi SE 5.8 mph - N/A   Mostly Cloudy
11:55 PM 59.0 °F 55.4 °F 88% 29.61 in 10.0 mi SSE 5.8 mph - N/A   Mostly Cloudy